Regional Weather Roundup
Issued by NWS Boston, MA

Home | Current Version | Previous Version | Text Only | Print | Product List | Glossary On
Versions: 1 2 3 4 5 6 7 8 9 10 11 12 13 14 15 16 17 18 19 20 21 22 23 24 25 26 27
000
ASUS41 KBOX 250310
RWRBOX

REGIONAL WEATHER ROUNDUP
NATIONAL WEATHER SERVICE BOSTON/NORTON MA
1100 PM EDT THU MAY 24 2018

NOTE:  "FAIR" INDICATES FEW OR NO CLOUDS BELOW 12,000 FEET WITH NO
SIGNIFICANT WEATHER AND/OR OBSTRUCTIONS TO VISIBILITY.

MAZALL-250400-
EASTERN MASSACHUSETTS

CITY           SKY/WX    TMP DP  RH WIND       PRES   REMARKS
BOSTON         FAIR      56  48  74 SW12      30.07S
BEVERLY        FAIR      57  47  69 SW9       30.05F
LAWRENCE       FAIR      59  48  67 SW8       30.06F
BEDFORD        FAIR      54  48  80 SW6       30.05F
BLUE HILL        N/A     51  48  89 S17G24    30.06F
NORWOOD        FAIR      55  50  83 S7        30.08F
MARSHFIELD     FAIR      54  50  87 SW6       30.08F
PLYMOUTH       FAIR      52  50  93 SW7       30.09F
TAUNTON        FAIR      51  49  92 VRB3      30.10F
NEW BEDFORD    MOCLDY    51  51 100 S10       30.10F
$$

MAZALL-250400-
CAPE COD AND THE ISLANDS

CITY           SKY/WX    TMP DP  RH WIND       PRES   REMARKS
FALMOUTH         N/A     50  50 100 SW8       30.12F
HYANNIS        CLOUDY    54  52  93 S12       30.09F
CHATHAM        MOCLDY    54  51  90 SW13G21   30.12F
PROVINCETOWN   FAIR      53  49  86 S15       30.09F
NANTUCKET      FAIR      51  51 100 S8        30.13F
MARTHAS VNYRD  CLOUDY    51  51 100 S10       30.12F FOG
$$

MAZALL-250400-
CENTRAL AND WESTERN MASSACHUSETTS

CITY           SKY/WX    TMP DP  RH WIND       PRES   REMARKS
WORCESTER      FAIR      54  48  80 SW10      30.07F
FITCHBURG      FAIR      60  53  77 S3        30.05F
ORANGE         FAIR      62  48  60 S8        30.07R
SPRINGFIELD    CLEAR     61  51  69 S9        30.06S
WESTFIELD      FAIR      60  54  80 S6        30.06S
NORTH ADAMS    FAIR      54  46  74 E3        30.06F
PITTSFIELD     FAIR      54  47  77 CALM      30.07F
$$

RIZALL-250400-
RHODE ISLAND

CITY           SKY/WX    TMP DP  RH WIND       PRES   REMARKS
PROVIDENCE     MOCLDY    52  50  93 S8        30.12F
NEWPORT        CLOUDY    51  50  96 S10       30.11F
BLOCK ISLAND   CLOUDY    52  51  97 S12       30.13F
SMITHFIELD     FAIR      52  48  86 MISG      30.10F
WESTERLY       CLOUDY    51  51 100 S6        30.14F FOG
$$

CTZALL-250400-
CONNECTICUT

CITY           SKY/WX    TMP DP  RH WIND       PRES   REMARKS
BRADLEY INTL   FAIR      59  53  80 S9        30.08S
HARTFORD       FAIR      57  53  86 VRB5      30.09S
BRIDGEPORT     FAIR      57  53  86 NE5       30.10S
DANBURY        FAIR      64  45  49 SE3       30.10R
GROTON         CLOUDY    51  51 100 S8        30.12F FOG
NEW HAVEN      FAIR      56  52  86 E3        30.10F
CHESTER        CLOUDY    52  52 100 SE3       30.11F FOG
MERIDEN        FAIR      57  52  83 CALM      30.10S
WILLIMANTIC    FAIR      54  51  90 S6        30.11F
OXFORD         FAIR      58  50  75 S5        30.11S
$$

MEZ002-015-021-024-NHZ003-005-008-011-012-014-VTZ005-008-250400-
NORTHERN NEW ENGLAND

CITY           SKY/WX    TMP DP  RH WIND       PRES   REMARKS
PORTLAND ME    FAIR      53  49  86 SW6       30.01F
BANGOR ME      LGT RAIN  51  45  79 S8        29.98F
CONCORD NH     FAIR      59  49  69 S6        30.01F
MANCHESTER NH  FAIR      63  50  62 S8        30.02F
NASHUA NH      FAIR      61  53  75 CALM      30.04F
PORTSMOUTH NH  PTCLDY    56  49  76 SW7       30.01F
JAFFREY NH     FAIR      54  49  83 S7        30.06S
KEENE NH       FAIR      52  45  77 CALM      30.04F
BURLINGTON VT  FAIR      60  43  53 CALM      29.96F
MT. WASHINGTON PTCLDY    41  25  52 W49         N/A  WCI  27
$$

NYZ052-076-250400-
EASTERN NEW YORK

CITY           SKY/WX    TMP DP  RH WIND       PRES   REMARKS
ALBANY         FAIR      65  45  48 S5        30.04F
NEW YORK CITY  FAIR      74  42  31 S12       30.08S
$$

ANZALL-250400-
MARINE OBSERVATIONS

STATION/POSITION TIME  TEMP    WIND        PRES    VSBY  WAVE
                       AIR SEA DIR/SP/G                  HT/PER
                 (UTC) (F)     (DEG/KT/KT) (MB)    (MI)  (FT/S)
BOSTON BUOY      0250   54 54  190/ 10/ 12 1018.1F         2/ 5
BUZZARDS BAY     0200   50     200/ 10/ 11 1021.1R
NANTUCKET SOUND  0250   53 56  210/ 16/ 19 1019.5F         2/ 3
MASS BAY-STELLWA 0204   54 55              1016.7F         4/ 5
ISLE OF SHOALS   0200   57     200/ 21/ 23 1016.7F
S OF BLOCK IS    0243      52                N/A           3/ 3
$$

......................KEY.........................
  SKY/WX - SKY CONDITION/PRESENT WEATHER
  TMP    - TEMPERATURE IN FAHRENHEIT
  DWPT   - DEWPOINT IN FAHRENHEIT
  RH     - RELATIVE HUMIDITY IN PERCENT
  WIND   - DIRECTION AND SPEED IN MPH
  PRES   - MEAN SEA LEVEL PRESSURE IN INCHES OF HG
  WCI    - WIND CHILL INDEX
  VSB    - VISIBILITY IN MILES
  HX     - HEAT INDEX
  TC     - TEMPERATURE IN CELSIUS
  VRB    - VARIABLE WIND DIRECTION
  N/A    - NOT AVAILABLE




USA.gov is the U.S. government's official web portal to all federal, state and local government web resources and services.